Location: Staunton
(38.1490°N, 79.0720°W)
Time: 14:22:47
(UTC-04:00)

ISS - Pass Details

Date: 23 May 2017
Orbit: 402 x 408 km, 51.6° (Epoch: 29 May)

Event Time Altitude Azimuth Distance (km) Brightness Sun altitude
Rises 21:16:27 0° 201° (SSW) 2,316 -0.1 -9.1°
Reaches altitude 10° 21:18:47 10° 186° (S) 1,460 -1.3 -9.4°
Maximum altitude 21:21:26 23° 132° (SE) 924 -2.6 -9.9°
Drops below altitude 10° 21:24:05 10° 78° (ENE) 1,466 -1.4 -10.3°
Sets 21:26:26 0° 63° (ENE) 2,329 -0.2 -10.7°
